Starlink 34452

operational
NORAD ID: 64425 Int'l Des: 2025-129 Owner: SPXS Country: US Constellation: starlink
LEOCIRCULAR

About Starlink 34452

Description loading...

Live Position

Loading 3D Globe...

Upcoming Passes

Altitude History

Altitude vs Time

uPlot chart will show altitude changes over time

Two-Line Element Set

1 64425U 25129P 26063.17465978 .00002904 00000-0 25095-3 0 9993
2 64425 70.0003 88.2645 0003784 267.5361 92.5365 14.98348919 40468
Epoch: Mar 4, 2026 • Age: 24 hours

Current Status

Altitude 581.1 km
Velocity 7.57 km/s
Sub-Earth Point 48.29°N, 47.33°W
Launch Date Jun 17, 2025
Age 0.7 years
Type internet

Technical Details

Classification Payload
Mass 575.00 kg
Dry Mass 530.00 kg
Total Mass 575.00 kg
Length 0.30 m
Diameter 4.10 m
Span 29.00 m
Shape Box + pan
Manufacturer SPXS
Bus Type Starlink V2MO
Phase Status In Orbit
Owner/State SPXS/US

Large Constellations

Loading constellations...